Lid_Strength_Index
5 4 4 5 5 5 5 5 5 4 4 5 5 5 5 5 5 4 4 4 4 4 4 4 4 4 10 15 14 9 6 8 10 10 10 11 12 13 15 14 12 14 14 12 12 13 13
4 5 4 5 5 5 5 5 5 5 5 5 5 5 5 5 5 4 4 5 5 4 4 4 4 6 13 18 10 9 10 11 11 11 11 10 12 11 13 14 14 13 14 14 14 14 14
5 5 5 5 5 5 5 5 4 5 5 5 5 5 5 5 5 4 5 5 4 4 5 4 4 8 13 15 10 10 10 12 11 11 12 10 11 12 12 15 12 13 16 16 15 15 15
5 5 5 5 5 5 5 5 5 5 5 5 5 5 5 5 4 4 5 4 5 4 5 4 5 10 15 9 9 10 11 12 11 10 10 10 9 13 16 15 15 19 18 20 17 17 15
5 5 5 5 5 5 5 5 5 5 5 5 5 5 5 4 4 4 5 4 5 5 5 6 11 13 16 8 11 10 12 13 12 12 11 9 12 17 17 19 20 21 24 22 21 18 18
5 5 5 5 5 5 5 5 5 5 5 5 5 5 4 4 4 5 5 5 5 7 9 10 10 15 13 14 11 11 11 12 14 14 14 15 18 20 19 21 25 24 24 22 23 20 19
5 5 5 5 5 5 4 4 4 4 5 5 5 5 5 4 4 5 8 11 13 14 13 15 15 15 14 11 11 12 12 13 14 16 19 17 20 22 21 20 20 22 23 23 21 19 19
5 5 5 5 5 4 4 4 4 4 4 5 5 4 4 4 4 5 8 12 11 12 16 13 13 13 11 11 15 13 12 16 17 19 18 19 21 19 18 18 19 19 20 22 19 17 18
5 5 5 5 4 4 4 4 4 4 4 5 5 4 4 4 5 8 10 10 8 10 17 14 12 14 13 12 15 15 13 15 17 19 19 20 19 17 17 18 19 19 19 20 20 17 18
5 5 5 4 4 4 4 4 4 4 4 4 4 3 3 3 8 9 10 7 7 10 23 17 15 13 12 13 16 12 12 15 16 18 18 18 16 17 17 18 17 19 16 17 18 19 23
5 4 4 4 4 4 4 4 3 3 3 3 2 2 2 3 8 9 7 6 7 11 29 16 14 10 12 14 14 14 12 14 17 17 18 19 18 17 18 17 16 18 16 17 18 19 21
4 4 4 4 4 4 3 3 2 2 2 2 2 2 2 6 8 7 6 8 11 22 31 17 13 14 15 14 14 13 14 13 14 17 16 17 15 16 17 15 16 15 17 17 17 19 29
4 4 4 4 3 3 2 2 1 2 2 2 3 3 4 5 9 6 8 12 22 26 17 17 16 14 15 16 15 15 16 17 19 26 22 18 17 16 15 17 16 16 20 29 29 31 28
4 4 4 4 3 2 1 1 1 2 2 2 3 4 6 6 6 8 12 18 26 24 18 13 15 15 17 15 16 16 17 20 16 18 23 24 27 18 16 17 19 18 19 25 30 27 24
4 4 4 3 2 2 1 2 2 2 2 3 4 9 9 7 7 11 15 23 22 18 14 15 17 18 19 15 17 18 19 19 17 16 26 24 22 16 15 15 16 17 21 16 20 21 23
4 4 4 3 2 1 1 2 2 2 2 4 11 11 10 8 9 12 17 21 22 13 13 14 20 20 20 18 20 20 20 17 16 15 16 23 27 17 15 14 15 17 15 23 21 31 28
4 4 3 2 1 1 1 1 1 1 2 5 13 16 10 8 11 16 23 27 16 12 12 18 19 17 20 21 21 21 19 17 16 16 15 19 22 21 16 19 19 18 18 22 22 20 22
4 4 4 2 1 1 1 1 1 1 2 8 17 19 10 10 17 27 26 24 12 13 12 14 17 18 17 18 24 24 20 20 17 16 21 15 24 26 22 15 15 19 18 17 25 24 20
4 4 3 2 1 1 1 1 1 2 3 12 21 21 11 11 22 25 23 22 17 15 14 14 17 15 19 18 23 23 25 18 18 20 22 18 25 26 27 20 17 20 16 14 15 17 21
4 4 3 2 1 1 1 1 1 1 3 12 18 20 17 18 21 21 24 21 21 14 15 13 14 14 19 22 19 22 19 17 13 16 11 13 17 22 24 21 17 20 17 15 15 20 18
4 4 3 2 1 1 1 1 1 1 3 11 18 21 19 22 20 23 19 24 20 20 15 15 20 18 21 24 21 22 18 18 14 12 15 19 23 25 20 17 17 18 17 16 18 17 19
4 4 3 2 1 1 1 1 1 1 3 13 17 18 20 24 16 19 17 20 19 17 19 19 19 15 18 22 20 20 18 17 17 15 18 22 23 23 21 17 18 19 17 15 16 16 15
4 3 3 2 2 1 1 1 1 2 5 16 11 10 16 18 25 22 21 17 15 14 15 14 15 15 16 16 14 15 14 13 14 15 15 16 18 19 23 24 26 25 19 16 14 14 16
3 3 3 3 2 2 1 1 1 2 4 10 13 10 16 21 22 19 15 15 14 14 15 13 13 17 14 12 12 13 13 13 13 13 12 15 16 17 21 24 27 20 15 13 13 14 12
3 3 3 3 2 2 2 1 1 1 2 6 8 9 13 16 15 15 15 15 14 13 14 13 12 12 12 13 22 27 26 24 23 16 15 13 15 20 21 23 19 17 14 14 14 15 12
3 2 2 2 2 2 2 1 1 1 1 5 6 6 10 13 17 12 15 15 18 17 18 14 12 11 12 16 26 32 31 30 28 24 16 14 13 18 26 24 25 18 12 10 10 17 10
2 2 2 2 2 2 2 2 2 1 1 4 6 5 8 13 13 14 18 16 14 15 15 16 14 14 12 27 25 30 29 23 27 32 28 30 30 21 20 20 18 13 11 9 17 17 9
2 2 2 2 2 2 2 2 2 2 1 4 6 5 7 11 10 10 11 14 15 13 15 14 13 19 21 23 26 27 29 23 25 21 22 25 23 26 28 27 24 12 10 13 10 8 9
2 2 2 2 2 2 2 2 2 2 2 2 7 5 5 8 10 9 8 7 8 9 10 11 13 17 14 21 24 19 24 23 20 21 16 21 17 18 16 17 12 9 9 8 7 9 8